SAA67 FHSH-FACT

Flight info

Callsign SAA67
Flight time N/A
Altitude 35000
Route IBRUK DCT 18S004W DCT 21S000E 24S004E 28S009E 30S012E DCT BUXIR DCT 33S017E DCT UVIKU UQ35 ASPIK ASPIK1C
Aircraft A320/M-SDE3FGHIRWY/LB1

Departure

Time 2026-05-04 16:43
Airport Saint Helena International Airport (FHSH)

Arrival

Time N/A
Airport Cape Town International Airport (FACT)
Time Latitude Longitude Altitude Speed Heading
2026-05-04 16:29 -15.96240 -5.64824 1021 ft 0 kts 359°
2026-05-04 16:39 -15.96239 -5.64824 1020 ft 1 kts 359°
2026-05-04 16:40 -15.96213 -5.64682 1020 ft 19 kts 89°
2026-05-04 16:40 -15.95921 -5.64594 1025 ft 46 kts 359°
2026-05-04 16:41 -15.95228 -5.64609 1024 ft 49 kts 358°
2026-05-04 16:41 -15.94964 -5.64614 1021 ft 0 kts 177°
2026-05-04 16:42 -15.95802 -5.64594 1027 ft 127 kts 179°
2026-05-04 16:43 -15.97944 -5.64584 1946 ft 164 kts 175°
2026-05-04 16:43 -16.00136 -5.64241 3090 ft 162 kts 140°
2026-05-04 16:43 -16.01090 -5.63477 3218 ft 184 kts 140°
2026-05-04 16:44 -16.06085 -5.59371 4704 ft 259 kts 140°
2026-05-04 16:45 -16.08967 -5.57019 6269 ft 268 kts 139°
2026-05-04 16:46 -16.13473 -5.53382 8171 ft 282 kts 140°
2026-05-04 16:46 -16.16602 -5.50840 9310 ft 291 kts 140°
2026-05-04 16:47 -16.19843 -5.48221 10253 ft 307 kts 141°
2026-05-04 16:47 -16.23407 -5.45332 10501 ft 344 kts 141°
2026-05-04 16:48 -16.29314 -5.40533 11541 ft 366 kts 141°
2026-05-04 16:48 -16.31323 -5.38890 12051 ft 368 kts 141°
2026-05-04 16:49 -16.35364 -5.35586 13026 ft 372 kts 141°
2026-05-04 16:49 -16.39466 -5.32239 13944 ft 378 kts 142°
2026-05-04 16:50 -16.43632 -5.28847 14818 ft 383 kts 142°
2026-05-04 16:50 -16.47854 -5.25413 15668 ft 387 kts 142°
2026-05-04 16:51 -16.52126 -5.21935 16432 ft 393 kts 142°
2026-05-04 16:51 -16.54284 -5.20177 16844 ft 395 kts 142°
2026-05-04 16:51 -16.58605 -5.16648 17609 ft 400 kts 143°
2026-05-04 16:52 -16.62999 -5.13049 18377 ft 404 kts 142°
2026-05-04 16:52 -16.65219 -5.11235 18735 ft 407 kts 143°
2026-05-04 16:53 -16.69709 -5.07564 19411 ft 413 kts 143°
2026-05-04 16:53 -16.76562 -5.01953 20441 ft 422 kts 143°
2026-05-04 16:54 -16.78880 -5.00059 20774 ft 424 kts 143°
2026-05-04 16:55 -16.88289 -4.92345 22033 ft 435 kts 143°
2026-05-04 16:55 -16.93075 -4.88421 22609 ft 440 kts 143°
2026-05-04 16:56 -16.97912 -4.84460 23140 ft 444 kts 143°
2026-05-04 16:56 -17.05255 -4.78431 23936 ft 450 kts 143°
2026-05-04 16:57 -17.07688 -4.76428 24193 ft 452 kts 143°
2026-05-04 16:57 -17.12647 -4.72337 24713 ft 456 kts 143°
2026-05-04 16:58 -17.20165 -4.66142 25408 ft 462 kts 143°
2026-05-04 16:58 -17.22693 -4.64063 25655 ft 462 kts 143°
2026-05-04 16:59 -17.27741 -4.59916 26248 ft 462 kts 143°
2026-05-04 17:00 -17.37847 -4.51582 27553 ft 462 kts 144°
2026-05-04 17:00 -17.45400 -4.45329 28539 ft 463 kts 144°
2026-05-04 17:01 -17.50445 -4.41161 29191 ft 461 kts 144°
2026-05-04 17:01 -17.55478 -4.36993 29788 ft 461 kts 145°
2026-05-04 17:02 -17.60522 -4.32820 30393 ft 462 kts 145°
2026-05-04 17:02 -17.64711 -4.29340 30903 ft 464 kts 144°
2026-05-04 17:03 -17.67239 -4.27243 31247 ft 463 kts 145°
2026-05-04 17:03 -17.69764 -4.25149 31567 ft 463 kts 145°
2026-05-04 17:03 -17.74822 -4.20966 32240 ft 463 kts 145°
2026-05-04 17:04 -17.79848 -4.16786 32862 ft 461 kts 145°
2026-05-04 17:04 -17.84870 -4.12606 33466 ft 461 kts 145°
2026-05-04 17:05 -17.89888 -4.08423 34028 ft 461 kts 146°
2026-05-04 17:05 -17.94895 -4.04235 34549 ft 460 kts 145°
2026-05-04 17:06 -17.99852 -4.00000 35019 ft 462 kts 139°
2026-05-04 17:06 -18.02002 -3.97456 35071 ft 469 kts 132°
2026-05-04 17:07 -18.06169 -3.92071 35071 ft 480 kts 132°
2026-05-04 17:07 -18.07593 -3.90218 35071 ft 484 kts 132°
2026-05-04 17:07 -18.12592 -3.83727 35068 ft 499 kts 132°
2026-05-04 17:08 -18.19214 -3.75153 35073 ft 505 kts 132°
2026-05-04 17:09 -18.23636 -3.69418 35076 ft 504 kts 132°
2026-05-04 17:09 -18.28056 -3.63688 35073 ft 504 kts 131°
2026-05-04 17:10 -18.39088 -3.49341 35095 ft 504 kts 131°
2026-05-04 17:11 -18.43498 -3.43607 35099 ft 503 kts 131°
2026-05-04 17:12 -18.50059 -3.35055 35102 ft 502 kts 131°
2026-05-04 17:13 -18.61002 -3.20776 35108 ft 501 kts 131°
2026-05-04 17:14 -18.69728 -3.09342 35118 ft 499 kts 131°
2026-05-04 17:15 -18.76250 -3.00791 35111 ft 498 kts 131°
2026-05-04 17:16 -18.84926 -2.89414 35110 ft 497 kts 131°
2026-05-04 17:17 -18.93574 -2.78043 35116 ft 496 kts 131°
2026-05-04 17:18 -19.02187 -2.66689 35109 ft 494 kts 130°
2026-05-04 17:19 -19.10742 -2.55403 35106 ft 493 kts 130°
2026-05-04 17:20 -19.19307 -2.44082 35083 ft 493 kts 130°
2026-05-04 17:20 -19.25747 -2.35550 35101 ft 495 kts 130°
2026-05-04 17:21 -19.34317 -2.24176 35100 ft 494 kts 130°
2026-05-04 17:22 -19.38594 -2.18507 35098 ft 492 kts 130°
2026-05-04 17:23 -19.47129 -2.07162 35108 ft 492 kts 130°
2026-05-04 17:24 -19.53519 -1.98648 35112 ft 492 kts 129°
2026-05-04 17:25 -19.62003 -1.87302 35117 ft 490 kts 129°
2026-05-04 17:26 -19.70473 -1.75991 35115 ft 489 kts 129°
2026-05-04 17:27 -19.81031 -1.61829 35116 ft 489 kts 129°
2026-05-04 17:28 -19.89445 -1.50547 35110 ft 489 kts 129°
2026-05-04 17:29 -20.02089 -1.33542 35109 ft 489 kts 129°
2026-05-04 17:31 -20.12579 -1.19347 35123 ft 488 kts 129°
2026-05-04 17:32 -20.23064 -1.05178 35119 ft 487 kts 129°
2026-05-04 17:33 -20.31429 -0.93839 35119 ft 487 kts 129°
2026-05-04 17:34 -20.39752 -0.82524 35113 ft 487 kts 129°
2026-05-04 17:35 -20.50188 -0.68318 35119 ft 487 kts 129°
2026-05-04 17:36 -20.54363 -0.62633 35120 ft 487 kts 129°
2026-05-04 17:36 -20.58530 -0.56942 35123 ft 487 kts 129°
2026-05-04 17:37 -20.62688 -0.51250 35120 ft 486 kts 129°
2026-05-04 17:37 -20.66853 -0.45562 35121 ft 486 kts 129°
2026-05-04 17:38 -20.71014 -0.39869 35123 ft 486 kts 129°
2026-05-04 17:38 -20.75174 -0.34178 35123 ft 486 kts 129°
2026-05-04 17:39 -20.81391 -0.25622 35124 ft 486 kts 129°
2026-05-04 17:39 -20.85541 -0.19918 35125 ft 486 kts 129°
2026-05-04 17:40 -20.89686 -0.14215 35130 ft 486 kts 129°
2026-05-04 17:40 -20.93830 -0.08508 35128 ft 486 kts 129°
2026-05-04 17:41 -20.97979 -0.02803 35125 ft 486 kts 129°
2026-05-04 17:41 -21.02151 0.02892 35132 ft 486 kts 131°
2026-05-04 17:42 -21.06468 0.08448 35126 ft 485 kts 133°
2026-05-04 17:42 -21.10840 0.13950 35128 ft 485 kts 133°
2026-05-04 17:43 -21.15179 0.19495 35131 ft 485 kts 133°
2026-05-04 17:43 -21.19486 0.25065 35137 ft 485 kts 133°
2026-05-04 17:44 -21.23797 0.30638 35135 ft 485 kts 133°
2026-05-04 17:44 -21.28103 0.36207 35135 ft 485 kts 133°
2026-05-04 17:45 -21.32405 0.41771 35133 ft 485 kts 133°
2026-05-04 17:45 -21.36699 0.47340 35132 ft 484 kts 133°
2026-05-04 17:46 -21.40962 0.52869 35132 ft 484 kts 133°
2026-05-04 17:46 -21.45252 0.58438 35132 ft 485 kts 133°
2026-05-04 17:47 -21.49547 0.64011 35128 ft 484 kts 133°
2026-05-04 17:47 -21.53840 0.69587 35129 ft 484 kts 133°
2026-05-04 17:48 -21.58133 0.75169 35129 ft 485 kts 133°
2026-05-04 17:48 -21.62423 0.80760 35134 ft 485 kts 132°
2026-05-04 17:49 -21.66703 0.86360 35139 ft 485 kts 133°
2026-05-04 17:49 -21.70984 0.91956 35138 ft 485 kts 133°
2026-05-04 17:50 -21.74548 0.96605 35143 ft 484 kts 133°
2026-05-04 17:50 -21.78829 1.02201 35138 ft 484 kts 133°
2026-05-04 17:51 -21.83104 1.07799 35142 ft 484 kts 133°
2026-05-04 17:51 -21.87380 1.13403 35139 ft 484 kts 133°
2026-05-04 17:52 -21.91647 1.19006 35135 ft 483 kts 133°
2026-05-04 17:52 -21.95914 1.24605 35134 ft 484 kts 133°
2026-05-04 17:53 -22.00171 1.30210 35133 ft 483 kts 133°
2026-05-04 17:53 -22.04426 1.35809 35141 ft 482 kts 133°
2026-05-04 17:54 -22.08666 1.41399 35130 ft 481 kts 133°
2026-05-04 17:54 -22.12899 1.46986 35127 ft 481 kts 133°
2026-05-04 17:55 -22.17134 1.52568 35127 ft 481 kts 133°
2026-05-04 17:55 -22.21371 1.58158 35131 ft 481 kts 133°
2026-05-04 17:56 -22.25600 1.63765 35126 ft 481 kts 133°
2026-05-04 17:56 -22.29826 1.69373 35129 ft 482 kts 133°
2026-05-04 17:57 -22.34057 1.74984 35136 ft 482 kts 133°
2026-05-04 17:57 -22.38287 1.80599 35132 ft 482 kts 133°
2026-05-04 17:58 -22.42518 1.86215 35129 ft 482 kts 133°
2026-05-04 17:58 -22.46743 1.91835 35131 ft 481 kts 133°
2026-05-04 17:59 -22.50965 1.97462 35134 ft 482 kts 133°
2026-05-04 18:00 -22.57296 2.05906 35139 ft 481 kts 133°
2026-05-04 18:00 -22.61512 2.11525 35137 ft 481 kts 133°
2026-05-04 18:01 -22.65714 2.17149 35133 ft 480 kts 133°
2026-05-04 18:01 -22.69910 2.22775 35134 ft 480 kts 133°
2026-05-04 18:02 -22.76203 2.31199 35128 ft 480 kts 133°
2026-05-04 18:02 -22.80398 2.36826 35135 ft 480 kts 132°
2026-05-04 18:03 -22.84586 2.42453 35139 ft 479 kts 132°
2026-05-04 18:03 -22.88770 2.48076 35138 ft 478 kts 132°
2026-05-04 18:04 -22.92936 2.53699 35130 ft 478 kts 132°
2026-05-04 18:05 -22.99182 2.62129 35129 ft 478 kts 132°
2026-05-04 18:05 -23.03352 2.67745 35134 ft 477 kts 132°
2026-05-04 18:06 -23.09567 2.76126 35138 ft 477 kts 132°
2026-05-04 18:06 -23.13718 2.81737 35128 ft 476 kts 132°
2026-05-04 18:07 -23.17854 2.87347 35128 ft 475 kts 132°
2026-05-04 18:07 -23.21985 2.92957 35128 ft 475 kts 132°
2026-05-04 18:08 -23.26108 2.98567 35126 ft 475 kts 133°
2026-05-04 18:08 -23.30231 3.04183 35131 ft 475 kts 132°
2026-05-04 18:09 -23.38477 3.15408 35126 ft 475 kts 133°
2026-05-04 18:10 -23.42599 3.21024 35124 ft 474 kts 133°
2026-05-04 18:10 -23.46708 3.26633 35061 ft 472 kts 133°
2026-05-04 18:11 -23.50804 3.32237 35061 ft 473 kts 133°
2026-05-04 18:11 -23.54904 3.37853 35057 ft 473 kts 133°
2026-05-04 18:12 -23.58996 3.43468 35063 ft 473 kts 133°
2026-05-04 18:12 -23.63096 3.49082 35059 ft 473 kts 133°
2026-05-04 18:13 -23.67193 3.54704 35073 ft 473 kts 133°
2026-05-04 18:14 -23.73328 3.63146 35073 ft 473 kts 133°
2026-05-04 18:14 -23.77411 3.68775 35077 ft 473 kts 133°
2026-05-04 18:15 -23.85572 3.80036 35063 ft 472 kts 133°
2026-05-04 18:16 -23.89650 3.85668 35062 ft 472 kts 133°
2026-05-04 18:16 -23.93730 3.91303 35071 ft 472 kts 133°
2026-05-04 18:17 -23.99834 3.99759 35067 ft 472 kts 134°
2026-05-04 18:18 -24.06332 4.07774 35066 ft 468 kts 139°
2026-05-04 18:18 -24.10850 4.12905 35067 ft 468 kts 139°
2026-05-04 18:19 -24.17525 4.20730 35067 ft 469 kts 137°
2026-05-04 18:19 -24.21925 4.26009 35068 ft 469 kts 137°
2026-05-04 18:20 -24.26301 4.31250 35065 ft 469 kts 138°
2026-05-04 18:20 -24.30715 4.36516 35062 ft 469 kts 138°
2026-05-04 18:21 -24.35127 4.41784 35059 ft 470 kts 138°
2026-05-04 18:21 -24.39545 4.47065 35063 ft 469 kts 138°
2026-05-04 18:22 -24.43962 4.52341 35060 ft 470 kts 138°
2026-05-04 18:22 -24.48381 4.57623 35067 ft 470 kts 138°
2026-05-04 18:23 -24.52789 4.62918 35071 ft 470 kts 138°
2026-05-04 18:23 -24.57190 4.68228 35081 ft 470 kts 138°
2026-05-04 18:24 -24.61604 4.73523 35074 ft 470 kts 138°
2026-05-04 18:24 -24.66015 4.78826 35072 ft 470 kts 138°
2026-05-04 18:25 -24.70420 4.84137 35073 ft 470 kts 138°
2026-05-04 18:25 -24.74831 4.89447 35070 ft 470 kts 138°
2026-05-04 18:26 -24.79240 4.94761 35066 ft 470 kts 138°
2026-05-04 18:26 -24.83643 5.00088 35075 ft 470 kts 138°
2026-05-04 18:27 -24.88044 5.05426 35069 ft 471 kts 138°
2026-05-04 18:27 -24.92445 5.10770 35066 ft 470 kts 138°
2026-05-04 18:28 -24.96847 5.16107 35062 ft 470 kts 138°
2026-05-04 18:28 -25.01214 5.21410 35065 ft 471 kts 138°
2026-05-04 18:29 -25.05612 5.26760 35068 ft 471 kts 138°
2026-05-04 18:29 -25.10003 5.32109 35065 ft 470 kts 138°
2026-05-04 18:30 -25.16592 5.40131 35064 ft 470 kts 138°
2026-05-04 18:31 -25.20984 5.45484 35064 ft 470 kts 138°
2026-05-04 18:31 -25.25367 5.50845 35065 ft 470 kts 138°
2026-05-04 18:32 -25.29747 5.56206 35059 ft 470 kts 138°
2026-05-04 18:32 -25.34132 5.61586 35066 ft 471 kts 138°
2026-05-04 18:33 -25.38518 5.66967 35069 ft 471 kts 138°
2026-05-04 18:33 -25.42899 5.72341 35068 ft 470 kts 138°
2026-05-04 18:34 -25.47280 5.77722 35073 ft 471 kts 139°
2026-05-04 18:34 -25.51660 5.83114 35071 ft 471 kts 138°
2026-05-04 18:35 -25.56006 5.88476 35071 ft 471 kts 139°
2026-05-04 18:35 -25.60380 5.93871 35070 ft 471 kts 139°
2026-05-04 18:36 -25.64758 5.99270 35074 ft 471 kts 139°
2026-05-04 18:36 -25.68416 6.03800 35068 ft 471 kts 139°
2026-05-04 18:37 -25.72755 6.09175 35077 ft 471 kts 139°
2026-05-04 18:37 -25.77121 6.14587 35075 ft 470 kts 139°
2026-05-04 18:38 -25.81476 6.19998 35077 ft 470 kts 139°
2026-05-04 18:38 -25.85836 6.25412 35071 ft 470 kts 139°
2026-05-04 18:39 -25.90200 6.30837 35068 ft 471 kts 139°
2026-05-04 18:39 -25.94559 6.36272 35062 ft 471 kts 139°
2026-05-04 18:40 -25.98920 6.41701 35063 ft 471 kts 139°
2026-05-04 18:40 -26.03282 6.47133 35068 ft 470 kts 139°
2026-05-04 18:41 -26.07626 6.52567 35063 ft 470 kts 139°
2026-05-04 18:41 -26.11961 6.57999 35061 ft 470 kts 139°
2026-05-04 18:42 -26.16301 6.63440 35063 ft 470 kts 139°
2026-05-04 18:42 -26.20637 6.68890 35061 ft 470 kts 139°
2026-05-04 18:43 -26.24973 6.74341 35070 ft 470 kts 139°
2026-05-04 18:43 -26.29315 6.79794 35061 ft 470 kts 139°
2026-05-04 18:44 -26.33649 6.85239 35064 ft 469 kts 139°
2026-05-04 18:44 -26.37965 6.90688 35064 ft 468 kts 139°
2026-05-04 18:45 -26.42282 6.96136 35064 ft 468 kts 139°
2026-05-04 18:45 -26.46606 7.01592 35063 ft 470 kts 139°
2026-05-04 18:46 -26.50927 7.07061 35061 ft 470 kts 139°
2026-05-04 18:46 -26.55225 7.12507 35068 ft 471 kts 139°
2026-05-04 18:47 -26.59548 7.18001 35072 ft 472 kts 139°
2026-05-04 18:47 -26.63880 7.23493 35073 ft 471 kts 139°
2026-05-04 18:48 -26.68207 7.28985 35072 ft 470 kts 139°
2026-05-04 18:48 -26.72532 7.34483 35077 ft 471 kts 139°
2026-05-04 18:49 -26.76856 7.39993 35081 ft 472 kts 139°
2026-05-04 18:49 -26.81178 7.45513 35085 ft 471 kts 139°
2026-05-04 18:50 -26.85489 7.51035 35082 ft 470 kts 140°
2026-05-04 18:50 -26.89794 7.56546 35087 ft 470 kts 140°
2026-05-04 18:51 -26.94092 7.62049 35097 ft 469 kts 140°
2026-05-04 18:51 -26.98381 7.67547 35095 ft 468 kts 140°
2026-05-04 18:52 -27.02660 7.73039 35097 ft 467 kts 140°
2026-05-04 18:52 -27.06932 7.78525 35096 ft 467 kts 140°
2026-05-04 18:53 -27.11198 7.84019 35097 ft 466 kts 140°
2026-05-04 18:53 -27.15421 7.89474 35096 ft 466 kts 140°
2026-05-04 18:54 -27.19676 7.94965 35096 ft 465 kts 141°
2026-05-04 18:54 -27.23926 8.00453 35095 ft 465 kts 141°
2026-05-04 18:55 -27.28168 8.05951 35075 ft 466 kts 141°
2026-05-04 18:55 -27.34547 8.14227 35069 ft 467 kts 141°
2026-05-04 18:56 -27.38806 8.19749 35073 ft 467 kts 141°
2026-05-04 18:56 -27.43065 8.25277 35079 ft 467 kts 141°
2026-05-04 18:57 -27.47324 8.30814 35094 ft 468 kts 141°
2026-05-04 18:57 -27.51581 8.36365 35100 ft 468 kts 141°
2026-05-04 18:58 -27.55824 8.41917 35098 ft 467 kts 141°
2026-05-04 18:58 -27.60077 8.47463 35099 ft 467 kts 141°
2026-05-04 18:59 -27.64314 8.53006 35082 ft 467 kts 141°
2026-05-04 18:59 -27.68520 8.58522 35081 ft 467 kts 141°
2026-05-04 19:00 -27.72763 8.64092 35081 ft 468 kts 141°
2026-05-04 19:00 -27.77024 8.69681 35082 ft 470 kts 141°
2026-05-04 19:01 -27.81288 8.75295 35083 ft 471 kts 141°
2026-05-04 19:01 -27.85564 8.80918 35082 ft 473 kts 141°
2026-05-04 19:02 -27.89854 8.86570 35083 ft 475 kts 141°
2026-05-04 19:02 -27.94155 8.92253 35077 ft 476 kts 141°
2026-05-04 19:03 -27.98459 8.97952 35073 ft 477 kts 140°
2026-05-04 19:03 -28.02719 9.03744 35062 ft 481 kts 139°
2026-05-04 19:04 -28.06833 9.09746 35062 ft 484 kts 137°
2026-05-04 19:04 -28.10924 9.15819 35064 ft 486 kts 138°
2026-05-04 19:05 -28.15060 9.21880 35063 ft 487 kts 138°
2026-05-04 19:05 -28.19223 9.27950 35061 ft 488 kts 138°
2026-05-04 19:06 -28.23409 9.34028 35057 ft 490 kts 138°
2026-05-04 19:06 -28.27604 9.40129 35054 ft 490 kts 138°
2026-05-04 19:07 -28.31799 9.46256 35052 ft 492 kts 138°
2026-05-04 19:07 -28.36000 9.52415 35056 ft 495 kts 138°
2026-05-04 19:08 -28.40216 9.58607 35060 ft 496 kts 138°
2026-05-04 19:08 -28.44450 9.64823 35061 ft 498 kts 138°
2026-05-04 19:09 -28.48687 9.71061 35066 ft 499 kts 137°
2026-05-04 19:09 -28.52929 9.77318 35068 ft 500 kts 137°
2026-05-04 19:10 -28.57149 9.83539 35076 ft 500 kts 137°
2026-05-04 19:10 -28.61394 9.89816 35076 ft 501 kts 137°
2026-05-04 19:11 -28.65641 9.96102 35076 ft 501 kts 137°
2026-05-04 19:11 -28.69880 10.02381 35078 ft 500 kts 137°
2026-05-04 19:12 -28.76311 10.11910 35096 ft 508 kts 136°
2026-05-04 19:13 -28.80610 10.18308 35107 ft 509 kts 136°
2026-05-04 19:13 -28.84907 10.24728 35110 ft 509 kts 136°
2026-05-04 19:14 -28.89209 10.31161 35107 ft 510 kts 136°
2026-05-04 19:14 -28.93519 10.37583 35108 ft 510 kts 136°
2026-05-04 19:15 -28.97830 10.44019 35113 ft 510 kts 136°
2026-05-04 19:15 -29.02132 10.50472 35109 ft 511 kts 136°